Regional Weather Roundup
Issued by NWS State College, PA

Home | Current Version | Previous Version | Graphics & Text | Print | Product List | Glossary Off
Versions: 1 2 3 4 5 6 7 8 9 10 11 12 13 14 15 16 17 18 19 20 21 22 23 24 25 26 27 28 29 30 31 32 33 34 35 36 37 38 39 40 41 42 43 44 45 46 47 48 49 50

000
ASUS41 KCTP 150710
RWRCTP

REGIONAL WEATHER ROUNDUP
NATIONAL WEATHER SERVICE STATE COLLEGE PA
200 AM EST FRI DEC 15 2017

Note: "fair" indicates few or no clouds below 12,000 feet with no
significant weather and/or obstructions to visibility.

* = STATION THAT DOES NOT REPORT PRECIPITATION /E.G. RAIN...SNOW...ETC/
    THUNDER OR FOG.

PAZ002>004-007>009-013>016-020>023-029>032-150800-
WESTERN PENNSYLVANIA

CITY           SKY/WX    TMP DP  RH WIND       PRES   REMARKS
ERIE           CLOUDY    19  11  70 S8        30.02F WCI   9
MEADVILLE      NOT AVBL
FRANKLIN*      CLOUDY    11   8  88 S5        29.99F WCI   3
NEW CASTLE     FAIR       7   3  84 CALM      30.04F
BEAVER COUNTY  NOT AVBL
BUTLER*        PTCLDY     8   5  87 CALM      30.02F
PITTSBURGH INT CLOUDY    17  11  77 CALM      30.00F
PITTSBURGH     PTCLDY    19  10  68 E3        29.99F
INDIANA*       CLOUDY    10   7  85 E3        30.05S
LATROBE        PTCLDY    14  10  85 CALM      30.03F
WASHINGTON CO* CLOUDY    13  10  88 CALM      30.03F
$$

PAZ004>006-010>012-017>019-024>028-033>037-041-042-045-046-049>053-150800-
CENTRAL PENNSYLVANIA

CITY           SKY/WX    TMP DP  RH WIND       PRES   REMARKS
BRADFORD         N/A     11   8  88 CALM      29.93F
DUBOIS         PTCLDY    13   6  74 CALM      29.96F
CLEARFIELD     PTCLDY     8   5  87 CALM      30.00F
JOHNSTOWN      CLOUDY    15   9  76 CALM      29.93F
ALTOONA        CLOUDY    11   6  81 CALM      30.01S
STATE COLLEGE  PTCLDY    12   5  74 CALM      30.03S
WILLIAMSPORT   CLOUDY    14   7  73 N3        30.09S
SELINSGROVE    CLOUDY    12   8  84 NW3       30.10S
FT INDIANTOWN  PTCLDY    16  11  80 CALM      30.08F
CAPITAL CITY   PTCLDY    20  11  68 SW5       30.10S WCI  13
HARRISBURG     CLOUDY    20  12  71 N5        30.09S WCI  13
YORK           CLOUDY    19  15  84 CALM      30.09R
$$

PAZ038>040-043-044-047-048-054-055-060>062-067>071-150800-
EASTERN PENNSYLVANIA

CITY           SKY/WX    TMP DP  RH WIND       PRES   REMARKS
SCRANTON       CLOUDY    10   5  80 CALM      30.05R
MOUNT POCONO   CLOUDY     8   3  80 W10       29.95S WCI  -6
ALLENTOWN      PTCLDY    15   4  61 N5        30.09F WCI   8
QUAKERTOWN*    MOSUNNY   12   7  79 CALM      30.09F
READING        CLOUDY    16  11  80 N3        30.09F
LANCASTER      CLOUDY    19  10  68 CALM      30.09F
COATESVILLE    MOSUNNY   19   9  63 N3        30.08S
POTTSTOWN      PTCLDY    15   7  70 CALM      30.11F
BLUE BELL      PTCLDY    19   9  63 CALM      30.11F
DOYLESTOWN     CLEAR     15   8  73 N3        30.09S
WILLOW GROVE   NOT AVBL
NORTH PHILA    PTCLDY    24   9  52 N9        30.12F WCI  14
PHILADELPHIA   MOCLDY    24   7  48 N8        30.11F
$$



USA.gov is the U.S. government's official web portal to all federal, state and local government web resources and services.